Change the Weather History Date:

Thursday, May 8, 2014

  Actual Average Record
Temperature  
Mean Temperature 68 °F -  
Max Temperature 84 °F 70 °F 88 °F (1965)
Min Temperature 53 °F 41 °F 26 °F (1950)
Cooling Degree Days 4    
Growing Degree Days 18 (Base 50)    
Moisture  
Dew Point 54 °F    
Average Humidity 59    
Maximum Humidity 82    
Minimum Humidity 38    
Precipitation  
Precipitation 0.00 in - - ()
Sea Level Pressure  
Sea Level Pressure 30.07 in    
Wind  
Wind Speed 3 mph (SW)    
Max Wind Speed 15 mph    
Max Gust Speed 22 mph    
Visibility 10 miles    
Events      
Averages and records for this station are not official NWS values.
T = Trace of Precipitation, MM = Missing Value Source: NWS Daily Summary

Daily Weather History Graph

Daily Weather History Graph

Search for Another Location

Airport or City:

Trip Planner

Search our weather history database for the weather conditions in past years. The results will help you decide how hot, cold, wet, or windy it might be!

Date:

Astronomy

May. 08, 2014 Rise Set
Actual Time 6:11 AM EDT 8:25 PM EDT
Civil Twilight 5:40 AM EDT 8:56 PM EDT
Nautical Twilight 5:02 AM EDT 9:34 PM EDT
Astronomical Twilight 4:21 AM EDT 10:15 PM EDT
Moon 2:22 PM EDT (5/8) 2:44 AM EDT (5/8)
Length of Visible Light 15h 15m
Length of Day
14h 14m
Waxing Gibbous, 64% of the Moon is Illuminated
May 8
Waxing Gibbous
May 14
Full
May 21
Last Quarter
May 28
New
Jun 5
First Quarter

Hourly Weather History & Observations

Time (EDT) Temp. Heat Index Dew Point Humidity Pressure Visibility Wind Dir Wind Speed Gust Speed Precip Events Conditions
12:56 AM 56.8 °F - 47.8 °F 72% 30.08 in 10.0 mi Calm Calm - N/A   Clear
1:56 AM 55.4 °F - 48.2 °F 77% 30.04 in 10.0 mi Calm Calm - N/A   Clear
2:56 AM 54.9 °F - 47.8 °F 77% 30.08 in 10.0 mi Calm Calm - N/A   Clear
3:56 AM 54.0 °F - 47.8 °F 80% 30.09 in 10.0 mi Calm Calm - N/A   Clear
4:56 AM 53.6 °F - 48.2 °F 82% 30.07 in 10.0 mi ENE 3.5 mph - N/A   Clear
5:56 AM 54.0 °F - 46.9 °F 77% 30.11 in 10.0 mi Calm Calm - N/A   Clear
6:56 AM 54.0 °F - 46.9 °F 77% 30.12 in 10.0 mi Calm Calm - N/A   Clear
7:56 AM 55.4 °F - 48.2 °F 77% 30.08 in 10.0 mi Calm Calm - N/A   Clear
8:56 AM 61.9 °F - 50.9 °F 67% 30.13 in 10.0 mi South 4.6 mph - N/A   Clear
9:56 AM 66.9 °F - 52.9 °F 61% 30.12 in 10.0 mi Calm Calm - N/A   Clear
10:56 AM 75.2 °F - 55.4 °F 50% 30.09 in 10.0 mi Calm Calm - N/A   Clear
11:56 AM 79.9 °F - 57.9 °F 47% 30.10 in 10.0 mi WSW 10.4 mph - N/A   Clear
12:56 PM 81.9 °F 81.6 °F 56.8 °F 42% 30.08 in 10.0 mi SW 10.4 mph - N/A   Clear
1:56 PM 81.9 °F 81.6 °F 56.8 °F 42% 30.07 in 10.0 mi WSW 11.5 mph - N/A   Partly Cloudy
2:56 PM 83.8 °F 83.1 °F 56.8 °F 40% 30.04 in 10.0 mi WSW 15.0 mph 21.9 mph N/A   Partly Cloudy
3:56 PM 84.9 °F 84.2 °F 57.9 °F 40% 30.03 in 10.0 mi SW 9.2 mph 17.3 mph N/A   Clear
4:56 PM 84.9 °F 83.9 °F 56.8 °F 38% 30.02 in 10.0 mi SW 11.5 mph 18.4 mph N/A   Clear
5:56 PM 83.8 °F 83.3 °F 57.9 °F 41% 30.02 in 10.0 mi SW 6.9 mph 17.3 mph N/A   Clear
6:56 PM 82.9 °F 82.6 °F 57.9 °F 42% 30.01 in 10.0 mi SW 9.2 mph - N/A   Clear
7:56 PM 80.6 °F 80.8 °F 57.2 °F 45% 30.00 in 10.0 mi SW 8.1 mph - N/A   Clear
8:56 PM 75.9 °F - 56.8 °F 51% 30.04 in 10.0 mi Calm Calm - N/A   Clear
9:56 PM 74.8 °F - 56.8 °F 53% 30.07 in 10.0 mi Calm Calm - N/A   Clear
10:56 PM 69.8 °F - 57.2 °F 64% 30.05 in 10.0 mi Calm Calm - N/A   Clear
11:56 PM 70.0 °F - 57.9 °F 65% 30.08 in 10.0 mi Calm Calm - N/A   Clear